Probability
0 0 0 0 0 0 0 0 0 0 0 0 1 3 3 4 5 6 6 7 8 9 9 11 16 21 23 22 21 21 21 21 21 21 20 19 19 20 16 13 13 14 11 9
0 0 0 0 0 0 0 0 0 0 0 1 2 3 3 3 5 6 7 7 8 8 9 13 17 20 22 22 23 23 23 23 23 23 23 22 22 22 20 17 16 16 14 13
0 0 0 0 0 0 0 0 0 0 0 1 2 3 3 3 4 7 9 10 9 8 10 15 19 19 18 18 21 23 24 24 23 24 25 25 25 24 23 21 20 19 17 16
0 0 0 0 0 0 0 0 0 0 0 0 1 1 2 3 4 8 12 13 11 9 10 14 15 16 16 15 17 23 26 25 23 23 24 25 24 23 23 23 22 20 19 17
0 0 0 0 0 0 0 0 0 0 0 0 0 1 2 3 5 8 12 12 10 8 9 10 10 12 14 13 16 24 28 27 24 23 23 23 22 21 22 23 23 21 19 17
0 0 0 0 0 0 0 0 0 0 0 0 0 0 2 4 4 6 9 10 8 7 9 10 10 11 13 13 15 22 28 29 27 25 24 22 21 22 23 22 22 21 19 18
0 0 0 0 0 0 0 0 0 0 0 0 0 1 2 4 4 5 7 9 9 8 9 11 13 14 15 15 15 20 28 32 31 29 28 26 26 26 24 22 22 21 21 21
0 0 0 0 0 0 0 0 0 0 0 0 0 2 3 4 5 7 9 11 11 10 9 10 13 15 15 15 17 20 27 34 36 35 34 33 31 28 25 25 24 23 23 24
0 0 0 0 0 0 0 0 0 0 0 0 0 2 3 3 4 8 12 13 13 13 11 11 13 15 15 16 18 20 25 33 37 38 38 36 32 27 25 25 24 24 24 24
0 0 0 0 0 0 0 0 0 0 0 0 0 2 3 3 4 7 11 14 17 17 17 16 16 17 17 19 21 23 26 30 33 35 36 34 29 25 23 22 21 22 22 21
0 0 0 0 0 0 0 0 0 0 0 0 0 2 5 7 6 6 9 14 18 20 20 20 19 19 20 22 24 27 29 29 28 29 29 28 25 22 21 21 21 20 19 18
1 1 0 0 0 0 0 0 0 0 0 0 0 2 5 8 9 8 9 12 15 17 18 18 19 21 24 26 28 31 32 30 27 25 24 24 23 22 22 23 22 21 20 18
2 2 1 0 0 0 0 0 0 0 0 0 0 1 4 8 10 11 10 10 10 12 14 15 17 22 26 29 31 33 33 30 27 25 24 24 24 24 24 24 22 21 19 17
3 2 1 0 0 0 0 0 0 0 0 0 0 2 5 8 10 13 13 10 9 11 14 15 17 21 25 27 28 30 30 29 28 27 27 26 24 23 23 23 20 18 17 16
4 3 1 0 0 0 0 0 0 0 0 0 2 5 8 9 11 15 15 12 11 15 18 18 18 20 22 23 23 25 28 30 31 31 31 28 24 21 20 20 19 18 16 14
6 5 3 1 0 0 0 0 0 1 2 3 4 5 7 9 11 14 15 13 13 16 19 19 19 20 21 20 21 23 28 32 34 33 30 27 24 20 18 18 18 17 17 15
6 5 3 1 1 0 0 0 0 2 4 5 5 4 6 7 9 12 14 13 12 14 18 19 18 18 19 20 20 22 26 32 33 31 28 26 24 21 19 19 19 19 18 16
5 5 3 2 2 1 0 0 0 1 3 4 4 4 5 6 7 9 10 11 12 14 18 20 18 17 18 21 21 20 22 27 29 29 27 26 24 22 22 22 22 21 19 17
5 5 3 2 2 1 0 0 0 1 3 3 4 5 6 6 7 8 8 10 14 16 18 19 18 18 19 21 21 18 16 19 23 26 26 25 24 23 23 23 23 22 19 17
4 4 3 2 1 1 1 1 1 2 4 4 5 6 7 7 9 9 10 12 16 18 17 16 17 18 19 21 21 17 14 15 18 21 23 23 23 22 22 23 23 21 18 17
1 2 1 1 1 1 2 2 2 3 6 6 6 7 8 10 11 12 13 15 18 18 15 14 16 17 19 21 22 19 17 17 18 19 21 22 22 21 20 21 22 19 16 16
0 1 1 1 1 2 4 5 5 5 7 8 7 7 9 11 12 12 13 15 17 17 14 14 16 17 18 20 21 20 20 21 20 20 21 22 22 19 18 18 19 17 15 15
1 1 1 1 1 3 5 6 7 8 8 9 8 8 8 10 11 11 10 12 13 13 14 15 16 17 18 19 19 19 20 22 23 22 21 21 20 18 16 16 16 16 15 15
0 1 1 1 1 1 3 5 7 8 8 8 8 8 7 7 8 7 6 7 8 10 12 14 16 17 18 18 17 16 17 19 22 22 20 19 19 17 16 16 14 15 15 15
0 0 0 0 0 0 1 2 5 6 7 7 7 7 6 6 5 4 2 4 7 10 11 12 14 16 17 17 16 13 12 14 17 18 18 18 19 18 16 15 12 11 12 12
0 0 0 0 0 0 0 1 2 4 6 6 6 6 5 5 4 2 1 4 9 11 11 11 12 14 16 16 15 12 10 11 13 15 16 17 18 17 16 13 10 8 8 7
Wind_Speed
8 10 10 8 8 7 6 8 8 5 3 5 6 4 2 2 3 3 4 4 6 6 7 7 8 8 8 8 8 8 7 7 5 4 4 4 4 3 2 2 2 1 0 0
9 10 6 5 6 8 9 10 8 5 4 5 6 6 4 3 3 3 3 4 4 6 6 7 7 8 8 8 8 8 8 7 6 4 3 3 2 2 2 1 2 1 1 1
10 3 4 7 8 10 10 10 8 5 4 7 7 8 7 5 4 3 3 3 3 4 6 7 7 8 8 9 9 7 7 7 6 6 5 4 3 2 3 3 2 1 1 0
8 4 6 9 9 10 9 7 7 7 9 7 9 8 7 6 5 4 3 3 3 4 5 7 8 8 8 8 8 7 7 7 7 7 6 6 5 4 3 2 2 2 2 1
6 6 8 9 7 7 5 4 7 9 10 9 9 11 5 7 6 5 3 2 2 3 4 6 8 8 8 8 8 8 7 7 7 7 6 6 5 4 3 2 2 2 2 2
5 4 5 5 4 5 5 6 8 10 11 12 9 10 5 4 4 4 3 2 1 2 3 4 6 7 7 7 7 7 7 7 7 7 7 7 6 4 4 3 3 3 2 2
8 7 5 5 7 8 9 9 8 9 9 8 5 8 3 1 1 2 1 1 1 1 2 4 5 6 6 6 7 7 8 7 7 8 7 7 7 6 5 4 4 4 3 2
8 8 6 5 7 5 8 11 9 8 8 5 6 7 2 2 2 1 1 1 1 1 1 2 3 5 6 6 6 7 7 7 7 7 7 6 6 5 4 4 4 4 2 2
5 4 5 3 4 8 8 9 7 9 10 9 6 4 4 4 3 2 2 1 1 1 0 1 2 4 5 6 6 7 7 7 7 7 6 6 6 5 4 4 4 3 2 3
5 6 5 4 6 4 6 6 6 9 9 10 8 8 4 5 4 3 1 1 1 0 0 0 2 3 4 5 6 6 6 7 7 7 6 5 5 5 4 4 3 2 3 2
6 7 6 7 7 6 7 8 8 8 8 9 8 2 3 1 2 2 1 0 1 1 1 1 1 2 4 4 5 6 6 6 5 5 5 4 4 4 4 4 4 3 3 3
4 6 6 5 3 4 6 7 8 8 8 9 9 1 4 2 0 1 1 0 1 1 1 1 0 1 3 3 4 5 5 5 5 5 5 5 4 4 4 4 3 3 3 3
3 5 7 8 8 7 6 5 6 7 7 9 11 3 4 2 0 1 1 1 1 1 1 1 0 0 1 2 3 4 5 5 5 5 5 4 4 4 4 3 3 3 3 3
5 6 8 8 3 3 6 6 7 10 9 9 10 5 1 1 2 2 2 2 1 1 1 1 1 1 0 1 2 3 4 4 5 5 5 5 4 4 4 4 4 3 3 3
5 7 7 6 4 5 7 7 8 10 10 11 8 6 4 2 2 2 2 2 1 1 1 2 1 1 1 0 1 2 2 3 3 4 4 4 4 3 3 3 3 3 4 3
2 5 6 7 6 6 7 7 8 9 9 9 8 6 4 3 2 2 2 2 2 2 2 2 2 1 1 1 1 2 2 3 3 3 3 3 4 4 4 4 4 3 4 3
4 5 7 7 6 7 8 5 6 6 6 7 7 4 3 3 3 3 3 3 3 3 3 3 2 1 1 1 1 2 2 2 3 3 3 3 4 4 4 4 4 4 4 4
4 6 6 6 6 9 1 1 2 4 3 4 5 4 3 3 3 2 3 4 4 4 4 3 3 2 1 1 1 2 3 3 3 4 4 4 4 4 4 4 4 4 3 4
4 5 6 6 7 5 4 1 3 5 4 3 4 4 4 3 3 2 3 4 5 5 4 4 3 3 2 1 1 2 3 3 4 4 4 4 4 5 4 4 4 3 3 3
3 5 6 6 7 5 1 2 3 6 6 2 4 4 5 4 5 1 4 4 5 5 5 4 3 2 2 1 1 2 3 3 3 3 3 3 4 4 4 4 4 3 3 3
4 5 6 7 7 2 3 2 3 6 2 4 4 4 4 4 4 4 4 4 4 5 5 4 3 2 2 2 2 2 3 3 3 3 3 3 3 4 4 4 4 3 4 3
4 4 4 5 6 1 4 1 2 3 4 4 4 4 4 3 3 4 5 5 5 5 5 4 3 3 2 2 3 3 3 3 3 3 3 3 3 3 3 4 3 3 3 4
3 4 3 3 2 3 2 1 2 3 4 4 5 4 3 3 4 5 6 6 5 6 5 4 3 3 2 3 3 3 2 2 3 3 3 3 4 3 3 4 4 3 3 3
2 1 3 3 2 1 1 2 3 3 4 5 5 5 4 5 5 6 5 5 6 6 5 4 3 3 3 2 2 1 2 2 3 3 3 3 3 3 3 3 3 2 2 2
2 2 4 5 3 4 2 3 4 4 5 5 5 5 5 5 5 6 5 6 5 5 5 4 3 3 3 2 1 1 2 3 3 3 3 3 3 3 3 2 1 1 1 1
3 4 5 4 3 4 3 4 5 5 5 6 5 5 5 5 5 5 5 5 5 5 4 4 3 3 2 2 1 1 1 2 3 3 3 3 3 3 3 3 2 2 1 2
Wind_Direction
196 219 216 216 232 261 259 249 240 227 194 230 231 232 227 179 197 191 183 186 188 187 180 176 179 179 176 177 178 180 185 176 183 184 188 183 177 176 165 150 119 123 100 129
201 221 226 231 226 237 241 243 237 211 190 238 234 235 220 187 191 194 188 186 190 183 175 175 179 182 182 180 181 181 184 181 189 176 181 181 173 180 161 152 128 147 168 264
224 197 192 213 212 225 233 246 247 232 212 217 232 228 207 184 184 184 191 194 191 189 186 180 183 186 186 185 186 187 185 183 190 176 174 169 162 185 175 170 161 153 154 250
230 199 206 219 221 235 236 239 249 236 232 223 229 246 195 189 187 192 197 202 198 199 193 185 184 186 188 186 182 179 180 185 186 188 191 187 186 193 186 178 153 161 172 184
210 204 217 227 231 238 259 243 241 242 244 248 225 251 199 185 203 204 196 200 200 207 198 189 188 187 187 184 179 175 178 186 189 196 194 199 204 201 190 180 155 187 170 193
235 214 240 249 238 232 235 222 224 234 239 240 237 249 225 190 212 206 186 184 200 200 190 191 189 182 180 177 179 175 178 187 191 196 197 202 205 205 195 188 182 201 185 188
204 197 200 226 219 200 222 232 228 224 226 235 202 241 235 134 187 223 219 186 169 187 184 186 184 179 177 176 180 178 181 188 192 197 200 204 207 202 201 207 205 213 200 187
219 202 186 205 241 231 225 245 254 259 254 239 207 236 173 117 135 173 186 189 151 161 175 174 180 184 184 182 182 183 183 184 188 195 199 204 208 211 209 213 220 218 216 198
242 216 160 192 239 250 229 238 268 271 265 260 232 205 181 173 176 175 168 155 123 105 151 173 187 191 192 186 184 187 186 184 189 191 189 192 201 214 208 204 217 215 208 201
265 250 212 190 212 217 262 245 243 254 261 259 242 228 213 190 197 189 191 133 63 7 317 191 197 197 194 189 185 185 186 189 192 191 192 189 192 201 203 208 210 211 208 216
255 247 223 208 229 235 218 223 243 256 268 271 265 236 63 148 213 227 214 42 27 338 322 280 218 195 187 186 184 182 185 188 192 196 193 192 186 191 197 200 198 196 195 195
244 263 247 228 227 270 248 247 242 250 248 255 272 256 83 89 204 235 222 343 13 353 346 332 229 183 176 180 183 183 185 187 186 189 187 184 180 180 183 184 185 184 190 202
229 240 236 210 196 196 222 231 243 252 255 255 260 225 113 109 98 349 336 342 334 330 344 2 50 138 168 176 180 181 185 189 183 180 184 179 182 182 184 179 178 184 190 199
255 246 260 272 295 226 223 228 234 245 251 255 257 267 221 297 318 335 335 331 334 334 348 12 13 28 106 165 176 183 189 189 184 181 183 181 183 185 192 189 184 188 192 194
250 244 249 267 272 258 252 249 242 245 258 266 273 279 314 303 310 322 331 328 336 356 12 15 2 3 351 196 186 188 195 196 191 188 189 181 174 180 192 191 190 194 195 196
258 255 244 243 237 240 250 257 252 248 255 262 270 276 332 327 323 331 334 333 336 332 355 6 359 358 320 253 220 200 200 197 191 196 195 182 180 184 195 198 190 194 197 196
229 236 247 247 234 242 241 251 252 249 260 266 271 298 323 312 314 321 326 338 346 342 346 336 333 341 308 263 221 207 190 183 185 190 189 188 186 190 197 199 187 190 200 201
247 247 250 249 237 238 105 58 274 264 271 292 288 295 305 309 304 311 359 358 353 344 338 330 322 312 298 260 220 195 180 183 189 193 194 193 191 190 192 200 195 193 201 204
236 244 252 249 240 235 206 218 279 267 259 310 301 308 318 316 268 209 41 0 348 346 339 327 307 293 285 272 232 193 186 187 196 201 201 199 194 192 190 196 200 199 198 200
173 231 248 243 252 252 75 51 308 267 243 320 310 307 310 302 274 0 24 350 347 341 335 323 307 293 280 269 233 207 200 200 205 204 203 207 199 197 195 197 206 204 202 204
202 216 236 246 247 239 41 356 252 246 359 8 324 307 299 305 320 343 332 331 335 332 325 319 311 296 290 271 233 216 210 210 208 211 207 201 197 197 195 193 196 202 207 208
256 245 233 250 247 226 45 339 278 359 8 338 327 319 313 313 309 314 317 319 323 322 322 317 307 298 292 266 242 225 219 212 205 201 198 195 195 201 190 185 193 202 206 201
259 309 311 303 353 46 42 348 350 331 322 324 318 322 319 310 308 312 312 314 318 317 316 312 303 295 285 262 244 229 216 197 192 191 198 200 195 198 191 191 190 192 203 220
191 272 265 265 259 298 329 330 326 328 330 325 323 316 309 307 303 303 306 308 311 313 311 308 300 292 294 289 269 227 207 192 184 191 195 190 188 187 182 193 193 202 211 221
297 246 249 245 272 282 294 320 327 337 330 323 324 318 308 303 300 304 307 311 315 316 317 308 302 298 295 292 271 231 209 187 180 187 198 196 191 180 176 180 173 220 233 291
256 264 271 278 307 296 305 323 321 321 323 320 318 320 316 309 304 304 308 313 313 311 313 312 311 306 300 296 270 231 209 189 185 191 197 199 185 178 182 171 156 64 77 66